Weather Roundup
Issued by NWS Springfield, MO

Home | Current Version | Previous Version | Text Only | Print | Product List | Glossary Off
Versions: 1 2 3 4 5 6 7 8 9 10 11 12 13 14 15 16 17 18 19 20 21 22 23 24 25 26 27 28 29 30 31 32 33 34 35 36 37 38 39 40 41 42 43 44 45 46 47 48 49 50

000
NZUS99 KSGF 250007
HRRSGF

HOURLY WEATHER
NATIONAL WEATHER SERVICE SPRINGFIELD MO
700 PM CDT TUE MAY 24 2016

......SGF CWA......

CITY           SKY/WX    TMP DP  RH WIND       PRES   REMARKS
SPRINGFIELD    MOSUNNY   67  61  81 S15       30.00R
6HR MIN TEMP:  64; 6HR MAX TEMP:  71; 6HR PCP:  0.12;

JOPLIN         CLOUDY    75  68  78 SE13G20   29.92S
6HR MIN TEMP:  66; 6HR MAX TEMP:  81;

WEST PLAINS    CLOUDY    64  60  87 SE7       30.03F
6HR MIN TEMP:  64; 6HR MAX TEMP:  70; 6HR PCP:  0.85;

ROLLA          PTSUNNY   66  63  90 SW7       29.97R
6HR MIN TEMP:  64; 6HR MAX TEMP:  67; 6HR PCP:  0.37;

BRANSON        PTSUNNY   63  63 100 SE12      30.03F

......SURROUNDING SGF CWA......

CITY           SKY/WX    TMP DP  RH WIND       PRES   REMARKS
CHANUTE        CLOUDY    78  70  76 SE9       29.87F
PARSONS        CLOUDY    78  70  76 VRB7      29.88F
COFFEYVILLE    CLOUDY    79  67  66 E8        29.86F
EMPORIA        MOSUNNY   80  71  74 S10       29.86F
GROVE OK       CLOUDY    79  70  73 SE6       29.93F
ROGERS AR      CLOUDY    73  65  75 E9        29.99F
SILOAM SPRINGS CLOUDY    77  64  65 S9        29.98F
HARRISON AR    CLOUDY    63  62  97 SE10      30.03F
NEAR YELLVILLE CLOUDY   N/A N/A N/A S7        29.98F

......KANSAS AND MISSOURI......

CITY           SKY/WX    TMP DP  RH WIND       PRES   REMARKS
KANSAS CTY INT MOSUNNY   78  66  66 S7        29.90S
DOWNTOWN KC    SUNNY     80  64  58 S7        29.89S
COLUMBIA       CLOUDY    70  65  84 S6        29.98R
SEDALIA        MOSUNNY   75  64  68 S9        29.96R
ST JOSEPH      SUNNY     79  64  60 E8        29.88F
ST LOUIS       CLOUDY    74  63  68 VRB6      29.95S
SPIRIT OF STL  CLOUDY    70  63  78 W7        29.96R
KIRKSVILLE     MOSUNNY   75  66  73 SE7       29.97R
WICHITA        MOSUNNY   81  69  67 SE17      29.79F
TOPEKA         PTSUNNY   80  68  66 SE9       29.87R
OLATHE         SUNNY     77  67  71 S7        29.91R

......TENNESSEE......

CITY           SKY/WX    TMP DP  RH WIND       PRES   REMARKS
MEMPHIS        CLOUDY    85  64  49 S8        30.03R
NASHVILLE      PTCLDY    83  53  35 W5        30.09R

......ARKANSAS.......

CITY           SKY/WX    TMP DP  RH WIND       PRES   REMARKS
FAYETTEVILLE   CLOUDY    76  71  85 S10       29.98S
FT SMITH       CLOUDY    83  69  62 SE9       29.94S
LITTLE ROCK    CLOUDY    85  66  53 S8        30.00R

......OKLAHOMA.......

CITY           SKY/WX    TMP DP  RH WIND       PRES   REMARKS
TULSA          TSTM      75  73  93 SE26G33   29.82F FOG
PONCA CITY     SUNNY     79  59  50 SE16      29.79F
MCALESTER      PTSUNNY   81  71  71 VRB6      29.94S
OKLAHOMA CITY  PTSUNNY   80  71  74 S14       29.87S

......IOWA............

CITY           SKY/WX    TMP DP  RH WIND       PRES   REMARKS
DES MOINES     MOSUNNY   82  58  43 S8        29.89R
QUAD CITIES    CLOUDY    84  59  42 SW8       29.90R

......ILLINOIS........

CITY           SKY/WX    TMP DP  RH WIND       PRES   REMARKS
QUINCY         CLOUDY    77  64  64 S6        29.94F
CHICAGO        PTSUNNY   84  49  29 S9        29.92R




USA.gov is the U.S. government's official web portal to all federal, state and local government web resources and services.